Location: Newark
(41.8083°N, 72.2500°W)
Time: 18:50:23
(UTC+00:00)

deb Explorer IX - Pass Details

Date: 05 December 2021
Orbit: 544 x 1082 km, 38.8° (Epoch: 16 January)

Event Time Altitude Azimuth Distance (km) Brightness Sun altitude
Rises 19:59:59 0° 267° (W) 2,708 ? 10.8°
Reaches altitude 10° 20:03:30 10° 235° (SW) 1,800 ? 10.3°
Maximum altitude 20:05:05 12° 212° (SSW) 1,678 ? 10.1°
Drops below altitude 10° 20:06:42 10° 189° (S) 1,814 ? 9.9°
Sets 20:10:17 0° 158° (SSE) 2,758 ? 9.4°
